Weather History for Fort Smith, AR

Change the Weather History Date:

Wednesday, February 13, 2013

  Actual Average Record
Temperature  
Mean Temperature 47 °F 44 °F  
Max Temperature 55 °F 55 °F 85 °F (1962)
Min Temperature 39 °F 33 °F -8 °F (1905)
Degree Days  
Heating Degree Days 18 21  
Month to date heating degree days 226 297  
Since 1 July heating degree days 1985 2388  
Moisture  
Dew Point 35 °F    
Average Humidity 64    
Maximum Humidity 85    
Minimum Humidity 43    
Precipitation  
Precipitation T in 0.09 in 3.23 in (1949)
Month to date precipitation 2.19 1.24  
Year to date precipitation 6.16 4.05  
Sea Level Pressure  
Sea Level Pressure 30.02 in    
Wind  
Wind Speed 6 mph (West)    
Max Wind Speed 16 mph    
Max Gust Speed 22 mph    
Visibility 10 miles    
Events Rain    
T = Trace of Precipitation, MM = Missing Value Source: NWS Daily Summary

Daily Weather History Graph

Daily Weather History Graph

Search for Another Location

Airport:

Trip Planner

Search our weather history database for the weather conditions in past years. The results will help you decide how hot, cold, wet, or windy it might be!

Date:

Astronomy

Feb. 13, 2013 Rise Set
Actual Time 7:05 AM CST 5:58 PM CST
Civil Twilight 6:39 AM CST 6:24 PM CST
Nautical Twilight 6:09 AM CST 6:54 PM CST
Astronomical Twilight 5:40 AM CST 7:23 PM CST
Moon 8:45 AM CST (2/13) 9:50 PM CST (2/13)
Length of Visible Light 11h 44m
Length of Day
10h 52m
Waxing Crescent, 14% of the Moon is Illuminated
Feb 13
Waxing Crescent
Feb 17
First Quarter
Feb 25
Full
Mar 4
Last Quarter
Mar 11
New

Hourly Weather History & Observations

Time (CST) Temp. Windchill Dew Point Humidity Pressure Visibility Wind Dir Wind Speed Gust Speed Precip Events Conditions
12:53 AM 39.9 °F 36.7 °F 36.0 °F 86% 29.98 in 10.0 mi NW 4.6 mph - 0.00 in Rain Light Rain
1:00 AM 39.2 °F 34.2 °F 35.6 °F 87% 29.97 in 10.0 mi NW 6.9 mph - N/A   Overcast
1:53 AM 39.9 °F 37.8 °F 35.1 °F 83% 29.97 in 10.0 mi WNW 3.5 mph - N/A   Overcast
2:53 AM 39.0 °F 32.8 °F 35.1 °F 86% 29.98 in 10.0 mi West 9.2 mph - N/A   Overcast
3:53 AM 39.0 °F - 35.1 °F 86% 29.99 in 10.0 mi Calm Calm - N/A   Overcast
4:53 AM 39.0 °F 32.8 °F 35.1 °F 86% 29.99 in 10.0 mi WNW 9.2 mph - N/A   Overcast
5:53 AM 39.0 °F 32.8 °F 35.1 °F 86% 30.02 in 10.0 mi West 9.2 mph - N/A   Overcast
6:53 AM 39.0 °F 34.8 °F 35.1 °F 86% 30.04 in 10.0 mi West 5.8 mph - N/A   Overcast
7:45 AM 39.2 °F 33.0 °F 35.6 °F 87% 30.06 in 10.0 mi West 9.2 mph - N/A   Overcast
7:53 AM 39.0 °F 32.8 °F 35.1 °F 86% 30.07 in 10.0 mi WNW 9.2 mph - N/A   Overcast
8:03 AM 39.2 °F 33.6 °F 35.6 °F 87% 30.06 in 10.0 mi West 8.1 mph - N/A   Overcast
8:34 AM 39.2 °F 34.2 °F 35.6 °F 87% 30.07 in 10.0 mi West 6.9 mph - N/A   Mostly Cloudy
8:53 AM 39.9 °F 33.9 °F 36.0 °F 86% 30.09 in 10.0 mi WNW 9.2 mph - N/A   Overcast
9:53 AM 43.0 °F 38.8 °F 37.0 °F 80% 30.09 in 10.0 mi West 6.9 mph - N/A   Overcast
10:15 AM 42.8 °F 37.5 °F 37.4 °F 81% 30.08 in 10.0 mi West 9.2 mph - N/A   Mostly Cloudy
10:53 AM 45.0 °F 40.6 °F 36.0 °F 71% 30.08 in 10.0 mi WSW 8.1 mph - N/A   Mostly Cloudy
11:53 AM 46.9 °F - 36.0 °F 66% 30.07 in 10.0 mi WSW 9.2 mph - N/A   Overcast
12:20 PM 48.2 °F - 35.6 °F 62% 30.05 in 10.0 mi WSW 8.1 mph - N/A   Scattered Clouds
12:53 PM 50.0 °F - 37.9 °F 63% 30.04 in 10.0 mi WSW 11.5 mph 18.4 mph N/A   Scattered Clouds
1:53 PM 52.0 °F - 37.9 °F 59% 30.01 in 10.0 mi WSW 9.2 mph - N/A   Partly Cloudy
2:53 PM 54.0 °F - 37.0 °F 53% 29.98 in 10.0 mi West 10.4 mph 17.3 mph N/A   Clear
3:53 PM 55.0 °F - 34.0 °F 45% 29.98 in 10.0 mi West 12.7 mph - N/A   Clear
4:53 PM 54.0 °F - 34.0 °F 47% 29.97 in 10.0 mi West 13.8 mph - N/A   Clear
5:53 PM 50.0 °F - 35.1 °F 57% 29.98 in 10.0 mi West 6.9 mph - N/A   Clear
6:53 PM 46.9 °F - 35.1 °F 63% 29.98 in 10.0 mi Calm Calm - N/A   Clear
7:53 PM 46.9 °F - 34.0 °F 61% 29.99 in 10.0 mi Calm Calm - N/A   Clear
8:53 PM 43.0 °F 40.3 °F 35.1 °F 74% 29.99 in 10.0 mi West 4.6 mph - N/A   Clear
9:53 PM 42.1 °F - 35.1 °F 76% 30.00 in 10.0 mi Calm Calm - N/A   Clear
10:53 PM 39.9 °F - 35.1 °F 83% 30.01 in 10.0 mi Calm Calm - N/A   Clear
11:53 PM 39.9 °F - 33.1 °F 77% 30.01 in 10.0 mi Calm Calm - N/A   Clear